AO-07 1 07530U 74089B 20268.69703197 -.00000023 00000-0 13753-3 0 9991 2 07530 101.8121 237.9233 0012102 171.2891 1.4977 12.53645207 98667 UO-11 1 14781U 84021B 20268.59650270 .00000093 00000-0 17510-4 0 9998 2 14781 97.5912 275.6406 0007247 228.9192 131.1397 14.83193146967523 LO-19 1 20442U 90005G 20268.45509547 .00000014 00000-0 21411-4 0 9991 2 20442 98.7007 216.0787 0010930 219.6492 140.3893 14.32961259602796 HUBBLE 1 20580U 90037B 20268.65943471 .00000491 00000-0 18867-4 0 9999 2 20580 28.4708 23.4857 0002919 79.5162 300.4216 15.09435285471051 MET-2/21 1 22782U 93055A 20268.22854403 -.00000015 00000-0 -26796-4 0 9991 2 22782 082.5505 155.2125 0021782 320.9559 153.3259 13.83829975366707 AO-27 1 22825U 93061C 20268.44352395 -.00000013 00000-0 13035-4 0 9992 2 22825 098.9267 273.3999 0009522 089.2781 270.9491 14.30093055407965 IO-26 1 22826U 93061D 20268.47666335 -.00000010 00000-0 14196-4 0 9994 2 22826 98.9208 273.3698 0010025 78.3675 281.8631 14.30429482408457 FO-29 1 24278U 96046B 20268.25331002 -.00000053 00000-0 -19982-4 0 9995 2 24278 098.5888 005.1767 0351247 118.9784 244.7043 13.53099903190249 NOAA-15 1 25338U 98030A 20268.72022407 .00000028 00000-0 30341-4 0 9998 2 25338 98.7117 293.2385 0009896 340.0241 20.0550 14.25990756163374 GO-32 1 25397U 98043D 20268.53977827 -.00000001 00000-0 19166-4 0 9995 2 25397 98.7347 209.3128 0002208 111.4850 248.6564 14.23690824153871 ISS 1 25544U 98067A 20268.82514902 -.00000284 00000-0 29810-5 0 9999 2 25544 51.6444 215.4317 0001509 97.1257 352.5408 15.48780087247463 NO-44 1 26931U 01043C 20268.65456068 -.00000013 00000-0 26811-4 0 9994 2 26931 67.0497 246.3916 0006593 276.1728 83.8622 14.30588074991337 SO-50 1 27607U 02058C 20268.85482004 -.00000000 00000-0 20381-4 0 9995 2 27607 64.5550 70.4541 0036125 143.6300 216.7268 14.75660742955524 CO-55 1 27844U 03031E 20268.48635761 .00000040 00000-0 37827-4 0 9995 2 27844 098.6836 274.7307 0010788 125.0266 235.1925 14.22257237894174 CO-57 1 27848U 03031J 20268.26036155 .00000025 00000-0 31256-4 0 9990 2 27848 98.6901 275.0725 0010500 137.2401 222.9595 14.21841655894019 RS-22 1 27939U 03042A 20268.84074986 .00000177 00000-0 40320-4 0 9991 2 27939 98.1052 42.4212 0013853 44.0897 316.1409 14.66887593908585 NOAA-18 1 28654U 05018A 20268.68506905 .00000059 00000-0 56682-4 0 9991 2 28654 99.0339 325.9934 0013420 314.2079 45.7989 14.12541567791017 CO-58 1 28895U 05043F 20268.32631322 .00000125 00000-0 32811-4 0 9991 2 28895 98.0237 41.9898 0016059 333.1921 26.8450 14.63801009795306 Falconsat-3 1 30776U 07006E 20268.41515092 .00003172 00000-0 83514-4 0 9999 2 30776 035.4356 006.6787 0002644 346.6451 013.4206 15.38220450752088 CO-65 1 32785U 08021C 20268.35196251 .00000217 00000-0 28879-4 0 9994 2 32785 097.5819 252.0623 0013452 158.8884 201.2891 14.88517352672588 AAUSAT2 1 32788U 08021F 20268.23606887 .00000515 00000-0 51796-4 0 9990 2 32788 097.4951 268.3618 0013410 084.6178 275.6573 14.95153809674076 DO-64 1 32789U 08021G 20268.08147074 .00000981 00000-0 67733-4 0 9997 2 32789 97.4102 307.4018 0011360 345.4891 14.6010 15.07936309676770 CO-66 1 32791U 08021J 20268.44989105 .00000427 00000-0 48375-4 0 9995 2 32791 97.5482 258.2642 0014442 128.3204 231.9316 14.91113552673219 RS-30 1 32953U 08025A 20268.63299010 .00000037 00000-0 19437-3 0 9992 2 32953 82.5038 216.2219 0018350 194.5594 165.4957 12.43098227559955 PRISM 1 33493U 09002B 20268.50705173 .00000361 00000-0 36793-4 0 9991 2 33493 98.1503 212.9458 0016087 87.0927 273.2135 14.97136000634531 NOAA-19 1 33591U 09005A 20268.76690854 .00000006 00000-0 28600-4 0 9994 2 33591 99.1973 276.7041 0014416 154.0269 206.1628 14.12432622599411 TISAT-1 1 36799U 10035E 20268.46508674 .00000200 00000-0 26178-4 0 9991 2 36799 098.2020 082.5946 0012451 012.0262 348.1250 14.91427285553680 JUGNU 1 37839U 11058B 20268.11812064 .00000314 00000-0 25469-4 0 9994 2 37839 19.9626 44.4180 0019039 36.0412 119.9574 14.12689023462862 SRMSAT 1 37841U 11058D 20267.27683963 .00000337 00000-0 40144-4 0 9999 2 37841 19.9718 115.8725 0011806 238.2900 277.4093 14.10671904462095 AO-71 1 37854U 11061E 20268.33216244 .00001999 00000-0 10671-3 0 9995 2 37854 101.7103 050.6513 0157714 127.6972 233.8661 15.07529924486372 HRBE 1 37855U 11061F 20268.34201682 .00002380 00000-0 12334-3 0 9990 2 37855 101.7228 047.7738 0170358 141.3954 219.9583 15.06549494486561 HORYU-2 1 38340U 12025D 20268.39743495 .00000127 00000-0 26422-4 0 9990 2 38340 098.2709 324.2817 0012783 086.5974 273.6696 14.75891146439148 RS-40 1 38735U 12041C 20268.48592577 .00000039 00000-0 21372-3 0 9999 2 38735 082.4754 298.9166 0015963 308.9426 051.0232 12.42581076370150 BEESAT-3 1 39135U 13015F 20268.50678180 .00001233 00000-0 68802-4 0 9991 2 39135 064.8688 341.4726 0032207 227.4476 132.3931 15.18368246410254 BEESAT-2 1 39136U 13015G 20268.46234183 .00001127 00000-0 64721-4 0 9996 2 39136 064.8753 346.9435 0035144 268.8182 090.8918 15.17754934410144 ZACUBE-1 1 39417U 13066B 20268.46055521 .00000225 00000-0 34548-4 0 9993 2 39417 097.5712 261.0030 0057719 314.4036 045.2460 14.81321524369694 TRITON-1 1 39427U 13066M 20268.44662693 .00000229 00000-0 44117-4 0 9993 2 39427 97.7362 223.9317 0114831 121.0365 240.2176 14.68046280366381 GOMX-1 1 39430U 13066Q 20268.73917232 .00000095 00000-0 26528-4 0 9998 2 39430 97.7943 201.2895 0149585 231.5887 127.1809 14.59437989364283 LO-74 1 39440U 13066AA 20268.53164004 .00000265 00000-0 43576-4 0 9999 2 39440 097.6412 245.6071 0080671 019.5863 340.8416 14.76055663367195 AO-73 1 39444U 13066AE 20268.46855576 .00000268 00000-0 39150-4 0 9992 2 39444 097.5648 263.2928 0056636 305.9504 053.6464 14.82184293368039 SPROUT 1 39770U 14029E 20268.21266227 .00000704 00000-0 82976-4 0 9995 2 39770 97.9028 14.1078 0009186 11.8561 348.2861 14.87865874343741 DUCHIFAT-1 1 40021U 14033M 20268.53941217 .00000353 00000-0 41560-4 0 9999 2 40021 097.9449 200.3976 0012140 327.2406 032.8058 14.90978708340657 NANOSATCBR1 1 40024U 14033Q 20268.55072801 .00000431 00000-0 50466-4 0 9990 2 40024 097.9280 196.4610 0011588 332.4048 027.6553 14.90137404339995 DTUSAT-2 1 40030U 14033W 20268.48878150 .00000233 00000-0 30965-4 0 9992 2 40030 97.9009 190.0297 0011338 336.7062 23.3639 14.88762461340251 EO-80 1 40032U 14033Y 20268.44379534 .00000256 00000-0 33462-4 0 9992 2 40032 097.9017 189.9879 0011301 337.8627 022.2100 14.88713564339714 ANTELSAT 1 40034U 14033AA 20268.49344137 .00000183 00000-0 34260-4 0 9996 2 40034 097.7032 119.3871 0059653 039.7099 320.8455 14.74299576336470 VELOX-1 1 40057U 14034E 20268.82280900 .00000172 00000-0 31598-4 0 9995 2 40057 98.2948 48.5938 0010721 180.5775 179.5431 14.77927818336319 DAURIA DX 1 1 40071U 14037C 20268.80822998 .00000019 00000-0 99305-5 0 9992 2 40071 98.4631 92.7293 0008423 170.3210 189.8168 14.81391597335963 HODOYOSHI-1 1 40299U 14070B 20268.79216919 .00000450 00000-0 21308-4 0 9995 2 40299 97.3153 343.1950 0012171 198.3099 257.4910 15.24172851326948 CHUBUSAT-1 1 40300U 14070C 20268.43789172 .00000441 00000-0 21835-4 0 9990 2 40300 097.2797 334.6005 0018360 222.0339 148.5858 15.22622574326578 QSAT-EOS 1 40301U 14070D 20268.79472949 .00001386 00000-0 54279-4 0 9998 2 40301 97.2853 340.9480 0024475 192.3308 264.9388 15.27218943327093 FIREBIRD FU3 1 40377U 15003B 20268.45295187 .00001523 00000-0 61583-4 0 9997 2 40377 099.0875 348.8905 0122442 343.8766 015.8582 15.20416245312342 FIREBIRD FU4 1 40378U 15003C 20268.17283930 .00001526 00000-0 61648-4 0 9995 2 40378 99.0878 348.6589 0122615 344.6725 15.0804 15.20434301312317 GRIFEX 1 40379U 15003D 20268.51657482 .00001326 00000-0 58815-4 0 9991 2 40379 99.0931 340.4017 0132263 10.4560 349.9370 15.16670763311864 NO-84 1 40654U 15025D 20267.20177648 +.00011957 +00000-0 +13102-3 0 415 2 40654 54.9834 209.4219 0114989 82.8451 278.5642 15.56024911184237 DEORBITSAIL 1 40719U 15032E 20268.81415500 .00000335 00000-0 54556-4 0 9994 2 40719 97.8561 154.9429 0014859 246.1088 113.8566 14.77071898280764 NUDT-PHONESAT 1 40900U 15049B 20268.71859971 .00001664 00000-0 70611-4 0 9993 2 40900 97.4301 278.8298 0012637 3.1184 120.9781 15.24460485278317 XW-2A 1 40903U 15049E 20268.83530949 .00001621 00000-0 38139-4 0 9992 2 40903 97.2770 317.8211 0011073 261.9915 155.8895 15.43432081281809 XW-2C 1 40906U 15049H 20268.84522170 .00000319 00000-0 19957-4 0 9993 2 40906 97.4806 268.7509 0015818 34.4886 85.2163 15.16178067277315 XW-2D 1 40907U 15049J 20268.81561841 .00000448 00000-0 26454-4 0 9992 2 40907 97.4795 268.4451 0015267 31.4964 46.5171 15.16424893277330 LILACSAT-2 1 40908U 15049K 20268.84585713 .00000099 00000-0 90236-5 0 9992 2 40908 97.4957 266.6922 0017158 42.2892 78.9856 15.14104591277039 XW-2E 1 40909U 15049L 20268.85425991 .00000770 00000-0 40452-4 0 9995 2 40909 97.4656 272.1232 0014212 22.5811 96.4923 15.18605109277611 XW-2F 1 40910U 15049M 20268.83731574 .00000673 00000-0 36244-4 0 9998 2 40910 97.4715 271.1900 0015427 21.0570 99.9995 15.18112302277418 XW-2B 1 40911U 15049N 20268.81288487 .00000633 00000-0 36021-4 0 9996 2 40911 97.4800 269.1417 0014913 33.4722 90.3924 15.16350587277222 DCBB 1 40912U 15049P 20268.87196940 .00000957 00000-0 46843-4 0 9997 2 40912 97.4501 275.4653 0014783 358.5404 122.1394 15.20531490277826 TW-1C 1 40926U 15051B 20268.81847310 .00030366 00000-0 25128-3 0 9992 2 40926 97.0726 321.4643 0006693 78.4898 32.7651 15.70192734282594 TW-1A 1 40928U 15051D 20268.82800716 .00002432 00000-0 56803-4 0 9992 2 40928 97.1040 294.2363 0010213 173.4259 273.2758 15.43103709280695 IO-86 1 40931U 15052B 20266.60926505 .00000664 00000-0 32998-5 0 9991 2 40931 005.9982 002.5677 0013154 214.5862 145.3553 14.76642788269647 LQSat 1 40958U 15057A 20268.15135545 -.00000008 00000-0 62493-5 0 9999 2 40958 097.8431 328.2625 0017934 188.4213 171.6697 14.73130588267045 ATHENOXAT-1 1 41168U 15077C 20268.08731481 .00003253 00000-0 13445-3 0 9993 2 41168 014.9934 057.6759 0010349 059.3832 260.5501 15.14578475264310 ChubuSat-2 1 41338U 16012B 20268.16694434 .00000328 00000-0 18775-4 0 9999 2 41338 031.0035 078.9266 0013727 013.9348 346.1664 15.00331106252570 ChubuSat-3 1 41339U 16012C 20268.08435800 .00000258 00000-0 13279-4 0 9997 2 41339 031.0113 076.9730 0013775 020.6922 339.4261 15.00492127252566 Horyu-4 1 41340U 16012D 20268.15030437 .00000473 00000-0 29012-4 0 9995 2 41340 031.0056 063.2223 0013805 047.6807 312.4997 15.01559758252725 OUFTI-1 1 41458U 16025C 20268.21751624 .00002231 00000-0 11456-3 0 9990 2 41458 98.1138 24.0825 0161655 236.8433 121.7197 15.07104406242350 e-st@r-II 1 41459U 16025D 20268.75729827 .00000593 00000-0 34258-4 0 9995 2 41459 98.1117 23.9833 0162848 237.3190 121.2247 15.06642681242392 AAUSAT4 1 41460U 16025E 20268.40793367 .00002348 00000-0 11745-3 0 9994 2 41460 098.1111 026.3091 0152029 225.9493 132.9144 15.09053960242563 LO-87 1 41557U 16033B 20268.86617836 .00001057 00000-0 41048-4 0 9992 2 41557 97.4020 358.4512 0015184 94.4452 15.1318 15.28230189240959 NuSat2 1 41558U 16033C 20268.76566736 .00001186 00000-0 43067-4 0 9990 2 41558 97.4080 1.0324 0014299 92.1830 7.9854 15.30237893241079 Lapan A3 1 41603U 16040E 20268.75909580 -.00000007 00000-0 27466-5 0 9994 2 41603 97.2981 319.1364 0012373 208.5643 261.8285 15.19871723236224 Swayam 1 41607U 16040J 20268.38796460 .00001638 00000-0 69409-4 0 9990 2 41607 097.3078 325.3864 0012677 190.4744 169.6231 15.24486592236495 Pratham 1 41783U 16059A 20268.43346458 .00000031 00000-0 15147-4 0 9995 2 41783 098.0063 321.0568 0033608 006.9378 353.2283 14.63074495213352 AlSat 1N 1 41789U 16059G 20268.77533490 .00000053 00000-0 19014-4 0 9993 2 41789 98.0096 324.4407 0028230 353.3097 6.7710 14.64343075213567 ScatSat 1 41790U 16059H 20268.70274837 .00000006 00000-0 12325-4 0 9991 2 41790 98.1525 305.9914 0005701 351.0404 9.0686 14.50928567211611 TY-1 1 41844U 16066D 20268.78454740 .00000683 00000-0 30215-4 0 9999 2 41844 97.4044 275.8520 0015131 1.3973 104.1887 15.24998278215400 Pegasus-1 1 41846U 16066F 20268.38616465 .00000189 00000-0 39955-4 0 9992 2 41846 98.6517 319.4263 0365610 298.6458 57.8417 14.37819931203184 CAS-2T 1 41847U 16066G 20268.14499341 .00000020 00000-0 14426-4 0 9999 2 41847 98.6437 319.6014 0364548 294.8947 61.4761 14.38091993203603 EO-88 1 42017U 17008BX 20268.45862538 .00001683 00000-0 66724-4 0 9996 2 42017 097.3511 334.5448 0005489 348.2782 011.8328 15.26752283200650 CAS-4B 1 42759U 17034B 20268.85245104 -.00000001 00000-0 13405-4 0 9998 2 42759 43.0180 200.9018 0011807 297.0887 161.0877 15.09885760180999 CAS-4A 1 42761U 17034D 20268.85802932 .00000086 00000-0 18628-4 0 9993 2 42761 43.0178 200.1035 0012167 298.5544 161.3478 15.09965410180997 UCLSat 1 42765U 17036A 20268.39256858 .00001370 00000-0 59808-4 0 9990 2 42765 097.2908 319.9332 0012337 044.4107 315.8117 15.23727447181050 NIUSat 1 42766U 17036B 20268.09989764 .00000951 00000-0 44671-4 0 9993 2 42766 097.2905 316.8470 0016350 038.9134 321.3276 15.21876601180696 LituanicaSAT 2 1 42768U 17036D 20268.39555750 .00002382 00000-0 99747-4 0 9996 2 42768 97.2969 320.0745 0015267 33.3884 326.8313 15.24413618180912 Aalto 1 1 42775U 17036L 20268.40533252 .00000826 00000-0 39111-4 0 9999 2 42775 097.2882 317.4778 0014748 037.7616 322.4652 15.21975106180723 URSA MAIOR 1 42776U 17036M 20268.38239750 .00000932 00000-0 43471-4 0 9995 2 42776 097.2894 317.7838 0014549 037.6609 322.5643 15.22169420180734 Max Valier Sat 1 42778U 17036P 20268.76942078 .00001043 00000-0 47517-4 0 9992 2 42778 97.2951 319.6124 0013131 39.9116 320.3084 15.22777185180843 Pegasus 1 42784U 17036V 20268.76672159 .00001306 00000-0 57681-4 0 9994 2 42784 97.2912 319.9458 0012899 43.9467 316.2794 15.23406967180899 NUDATSat 1 42787U 17036Y 20268.60423580 .00001378 00000-0 58255-4 0 9999 2 42787 097.2962 321.4218 0012843 036.0449 324.1649 15.24809760180808 SUCHAI 1 1 42788U 17036Z 20268.81967680 .00001527 00000-0 65841-4 0 9992 2 42788 97.2921 320.6805 0012366 42.2734 317.9454 15.23993159181016 SKCUBE 1 42789U 17036AA 20268.41687145 .00001407 00000-0 61171-4 0 9993 2 42789 097.2916 320.1098 0012307 043.9672 316.2542 15.23818256180860 VZLUSAT 1 1 42790U 17036AB 20268.39738786 .00001914 00000-0 79883-4 0 9992 2 42790 097.2943 321.2127 0011707 041.9332 318.2800 15.24792974180926 VENTA 1 1 42791U 17036AC 20268.45798280 .00001419 00000-0 61731-4 0 9998 2 42791 097.2913 320.1862 0011987 044.5287 315.6911 15.23791229180864 Robusta 1B 1 42792U 17036AD 20268.09546558 .00001331 00000-0 57709-4 0 9991 2 42792 097.2919 320.0803 0011918 045.5422 314.6789 15.24017041180845 D-SAT 1 42794U 17036AF 20268.34378291 .00000248 00000-0 26669-4 0 9995 2 42794 097.4872 296.0685 0126990 035.5350 325.4244 14.91322527177431 TechnoSat 1 42829U 17042E 20268.39780957 .00000193 00000-0 24712-4 0 9998 2 42829 97.5043 145.4525 0013217 320.3760 39.6492 14.91133190174036 QIKCOM-1 1 42983U 98067NF 20268.79888514 .00005854 00000-0 70817-4 0 9993 2 42983 51.6376 164.4444 0004243 77.1075 283.0393 15.62316546165811 AO-91 1 43017U 17073E 20268.50511995 .00000681 00000-0 57416-4 0 9998 2 43017 097.7154 176.8946 0258165 087.5884 275.4856 14.79022571153800 EcAMSat 1 43019U 98067NG 20268.23254984 .00012608 00000-0 11743-3 0 9998 2 43019 51.6397 149.5008 0003942 72.0884 288.0542 15.67780690248286 PICSAT 1 43132U 18004X 20268.16293546 .00001511 00000-0 64059-4 0 9996 2 43132 097.4395 338.8713 0011051 070.7368 289.5064 15.24638114150098 AO-92 1 43137U 18004AC 20268.09051164 .00001050 00000-0 45876-4 0 9995 2 43137 97.4379 338.5520 0010703 72.9275 287.3134 15.24294153150064 TianYi 2 1 43155U 18008A 20268.83656647 .00000269 00000-0 19440-4 0 9997 2 43155 97.4379 335.3574 0017788 160.2381 307.0400 15.11751379147939 Zhou Enlai 1 43156U 18008B 20268.83043527 .00000225 00000-0 17087-4 0 9992 2 43156 97.4420 335.1934 0014984 157.9358 310.7428 15.11308704147882 TianYi 6 1 43158U 18008D 20268.20913818 .00000292 00000-0 21269-4 0 9995 2 43158 097.4362 333.5217 0013581 159.9731 266.6757 15.10833913147736 S-Net D 1 43186U 18014G 20268.71975539 -.00000346 00000-0 -25150-4 0 9992 2 43186 97.6857 174.9068 0009529 251.2064 108.8124 14.96852439144549 S-Net B 1 43187U 18014H 20268.38535474 -.00000348 00000-0 -25350-4 0 9990 2 43187 097.6856 174.5537 0009501 252.3898 107.6287 14.96852177144493 S-Net A 1 43188U 18014J 20268.25153757 -.00000342 00000-0 -24794-4 0 9992 2 43188 097.6859 174.4557 0009480 253.0546 106.9637 14.96852147144478 S-Net C 1 43189U 18014K 20268.31884941 -.00000354 00000-0 -25812-4 0 9991 2 43189 097.6854 174.4830 0009499 252.7373 107.2810 14.96851298143036 FMN 1 1 43192U 18015A 20268.82097300 .00001869 00000-0 75379-4 0 9990 2 43192 97.4559 37.9252 0017170 98.4411 7.1637 15.25958215147055 Shaonian Xing 1 43199U 18015H 20268.67930807 .00001332 00000-0 54403-4 0 9998 2 43199 97.4351 35.7917 0018177 107.2834 17.0839 15.26023271147096 UBAKUSAT 1 43467U 98067NQ 20268.70409336 .00071630 00000-0 34907-3 0 9997 2 43467 51.6327 128.8891 0001894 149.8547 210.2564 15.81707685135789 EnduroSat One 1 43551U 98067NZ 20268.67360017 .00320610 53781-4 65114-3 0 9996 2 43551 51.6259 118.6858 0004305 214.1541 145.9192 15.98977033126142 EQUISat 1 43552U 98067PA 20268.71428482 .00070950 00000-0 36322-3 0 9993 2 43552 51.6291 136.5548 0004601 138.4158 221.7194 15.80631524125872 UiTMSat 1 1 43589U 98067PD 20268.66949711 .00122363 00000-0 46373-3 0 9993 2 43589 51.6309 131.5296 0004277 168.7765 191.3336 15.86769671121671 Maya 1 1 43590U 98067PE 20266.89797927 .00072470 00000-0 28167-3 0 9992 2 43590 051.6257 140.6448 0004220 155.2061 204.9147 15.86456241121322 Bhutan 1 1 43591U 98067PF 20267.92780799 .00107067 00000-0 40298-3 0 9997 2 43591 51.6321 134.9149 0004464 164.2622 195.8522 15.86962536121494 SiriusSat 1 1 43595U 98067PG 20268.20046696 .00047706 00000-0 23108-3 0 9998 2 43595 51.6254 141.1597 0003554 134.7735 225.2613 15.81998869120611 SiriusSat 2 1 43596U 98067PH 20268.14261617 .00049012 00000-0 23860-3 0 9991 2 43596 051.6255 142.3478 0003172 137.4225 222.6931 15.81880657120590 SurfSat 1 43614U 18070B 20268.53913274 .00004049 00000-0 10268-3 0 9993 2 43614 093.0277 195.5971 0013131 323.8650 036.1716 15.39659777113728 CP-7 DAVE 1 43615U 18070C 20268.58066468 .00003868 00000-0 98635-4 0 9996 2 43615 93.0280 195.5985 0013269 323.1606 36.8735 15.39488465113726 ELFIN-B 1 43616U 18070D 20268.59309119 .00006181 00000-0 14953-3 0 9992 2 43616 93.0237 195.5817 0013545 324.2544 35.7803 15.41059345113787 ELFIN-A 1 43617U 18070E 20268.54819021 .00006509 00000-0 15634-3 0 9997 2 43617 93.0290 196.1590 0012791 321.0075 39.0257 15.41285246113789 STARS-Me Mother 1 43640U 98067PQ 20267.96058696 .00018400 00000-0 16569-3 0 9996 2 43640 51.6335 167.6442 0004144 65.6109 294.5319 15.68253084112179 CubeBel 1 1 43666U 18083E 20268.81030921 .00000646 00000-0 34625-4 0 9997 2 43666 97.4837 294.2737 0015643 20.7940 33.4295 15.18426875105694 Changshagaoxin 1 43669U 18083H 20268.88199281 .00000532 00000-0 29925-4 0 9993 2 43669 97.4722 292.2326 0011376 16.9400 107.0606 15.17422531105608 Ten-Koh 1 43677U 18084G 20268.59061531 .00000127 00000-0 18928-4 0 9998 2 43677 097.8932 025.4734 0015859 186.3147 173.7873 14.90318141103709 PO-101 1 43678U 18084H 20268.82190481 -.00000078 00000-0 -20363-5 0 9996 2 43678 97.8952 27.2836 0009088 201.4978 158.5881 14.91649712103839 IRVINE 01 1 43693U 18088D 20268.56963170 .00003545 00000-0 14756-3 0 9998 2 43693 085.0386 011.3805 0015308 287.8562 072.1011 15.23271284103933 QO-100 1 43700U 18090A 20268.54882302 .00000123 00000-0 00000-0 0 9998 2 43700 000.0175 214.0166 0001959 339.2686 033.9541 01.00273875006701 Reaktor Hello World 1 43743U 18096AA 20268.14956339 .00001336 00000-0 52019-4 0 9997 2 43743 97.4140 341.4996 0018994 135.6029 224.6737 15.27614513101469 MinXSS-2 1 43758U 18099A 20268.20966148 .00000769 00000-0 74083-4 0 9996 2 43758 097.6987 338.5038 0014821 214.2802 145.7464 14.95730518098719 AO-95 1 43770U 18099N 20268.43166088 .00000185 00000-0 22091-4 0 9994 2 43770 97.6981 338.0496 0013507 222.1365 137.8818 14.95046585 98700 RANGE-B 1 43772U 18099Q 20268.43888294 .00000143 00000-0 18158-4 0 9999 2 43772 097.7053 338.6822 0013426 208.4385 151.6105 14.95253188098703 RANGE-A 1 43773U 18099R 20268.29038904 .00000372 00000-0 39166-4 0 9995 2 43773 097.6922 337.4745 0012777 208.3886 151.6640 14.95010313098673 MOVE-II 1 43780U 18099Y 20268.41940089 .00000919 00000-0 88134-4 0 9999 2 43780 097.6988 338.3176 0012574 218.3451 141.6877 14.95487824098705 SNUSat 2 1 43782U 18099AA 20268.44229263 -.00000162 00000-0 -94979-5 0 9995 2 43782 97.6978 338.3075 0012006 207.3635 152.6955 14.95308176 98718 SnugLite 1 43784U 18099AC 20268.47094064 .00000600 00000-0 59390-4 0 9991 2 43784 097.6940 338.1339 0014306 215.8501 144.1761 14.95410128098735 ITASat 1 1 43786U 18099AE 20268.20568024 .00000558 00000-0 55700-4 0 9999 2 43786 097.6995 338.3180 0014390 216.0010 144.0243 14.95374700098698 EAGLET 1 1 43790U 18099AJ 20268.44019571 -.00000124 00000-0 -59826-5 0 9993 2 43790 097.6987 338.8469 0012490 219.7957 140.2349 14.95758320098440 ESEO 1 43792U 18099AL 20268.45853507 -.00000116 00000-0 -52208-5 0 9999 2 43792 097.6955 338.6376 0012473 216.4259 143.6114 14.95621060098506 CSIM 1 43793U 18099AM 20268.13680537 .00000678 00000-0 65254-4 0 9991 2 43793 097.6957 338.3734 0012433 213.0391 147.0055 14.96136930098443 Astrocast 0.1 1 43798U 18099AS 20268.35237063 .00000729 00000-0 70174-4 0 9996 2 43798 097.6985 338.8799 0011995 197.1013 162.9806 14.95911380098731 JO-97 1 43803U 18099AX 20268.14129670 .00000682 00000-0 66606-4 0 9997 2 43803 097.6955 338.0510 0014322 216.2097 143.8155 14.95562584098687 Suomi 100 1 43804U 18099AY 20268.14295280 .00000690 00000-0 67293-4 0 9991 2 43804 97.6955 338.0367 0014381 216.3126 143.7120 14.95548954 98694 Al Farabi 2 1 43805U 18099AZ 20267.77428587 -.00000052 00000-0 51685-6 0 9991 2 43805 97.6961 337.7879 0013775 220.9060 139.1179 14.95685397 98641 PWSat 2 1 43814U 18099BJ 20268.23545365 .00047911 00000-0 23955-2 0 9996 2 43814 097.7935 351.3348 0011179 188.1164 171.9889 15.17220944098675 CHOMPTT 1 43855U 18104G 20268.31842815 .00001015 00000-0 41073-4 0 9995 2 43855 085.0339 109.7993 0019309 052.4240 307.8753 15.23119083098577 ISAT 1 43879U 18111D 20268.80634518 -.00000232 00000-0 -15397-4 0 9994 2 43879 97.6926 174.5972 0011907 275.3362 84.6515 14.96298187 93324 UWE-4 1 43880U 18111E 20268.30235129 .00000650 00000-0 62182-4 0 9992 2 43880 097.6952 174.4263 0010547 277.1149 082.8873 14.96554349095277 Sparrow 1 43881U 18111F 20268.54930503 .00000634 00000-0 60763-4 0 9992 2 43881 097.6950 174.7555 0010928 272.5009 087.4961 14.96591533095310 Lume 1 1 43908U 18111AJ 20268.51445078 .00001153 00000-0 48430-4 0 9991 2 43908 097.2538 165.4824 0021908 148.8112 211.4432 15.25212590097123 FO-98 1 43933U 19003B 20268.25977246 .00000739 00000-0 34986-4 0 9998 2 43933 097.2202 314.1658 0016132 251.9869 107.9610 15.22236631093565 FO-99 1 43937U 19003F 20268.21190447 .00001326 00000-0 56261-4 0 9991 2 43937 097.2165 315.6479 0022488 232.8133 127.1053 15.24594031093688 Delphini 1 1 44030U 98067PW 20267.99417936 .00033335 00000-0 27472-3 0 9998 2 44030 51.6320 173.1114 0004626 108.6810 251.4689 15.70028650 93977 MYSat 1 1 44045U 18092F 20268.48273946 .00003147 00000-0 95735-4 0 9996 2 44045 051.6385 281.2884 0010977 325.8036 034.2239 15.37133067090515 AstroCast 0.2 1 44083U 19018F 20268.45509008 .00000846 00000-0 40362-4 0 9994 2 44083 97.4114 328.0856 0013173 178.0109 182.1182 15.21729111 82430 AISTechSat 3 1 44103U 19018AB 20268.76259490 .00000632 00000-0 29551-4 0 9998 2 44103 97.3983 328.6205 0012837 191.5805 266.6613 15.23304694 82556 AISat 1 1 44104U 19018AC 20268.44246180 .00001005 00000-0 34449-4 0 9993 2 44104 097.4557 338.7027 0056857 220.0523 139.6520 15.31205441082953 Raavana-1 1 44329U 98067QE 20268.69333770 .00019271 00000-0 24122-3 0 9992 2 44329 51.6384 195.9951 0005646 27.9417 332.1878 15.59798145 72488 Uguisu 1 44330U 98067QF 20268.07122166 .00014979 00000-0 18995-3 0 9992 2 44330 51.6360 199.3118 0005561 25.0887 335.0375 15.59665504 72366 NepaliSat-1 1 44331U 98067QG 20268.36439581 .00017024 00000-0 21389-3 0 9992 2 44331 051.6360 197.5223 0005662 029.3185 330.8125 15.59797332072422 Prox-1 1 44339U 19036A 20268.50573947 .00001021 00000-0 19195-3 0 9992 2 44339 23.9989 208.5668 0011721 153.2389 206.8708 14.53121990 66551 Oculus-ASR 1 44348U 19036K 20267.98127875 .00006484 00000-0 91620-4 0 9990 2 44348 028.5178 096.3284 0360595 280.1281 075.8826 15.04168701068641 Armadillo 1 44352U 19036P 20268.19224967 .00010761 00000-0 15292-3 0 9992 2 44352 028.5334 087.7923 0345441 292.9882 063.4626 15.07637950068691 NO-104 1 44354U 19036R 20266.25304705 .00004823 00000-0 65219-4 0 9995 2 44354 028.5320 104.1033 0357242 266.1355 089.8330 15.05241504068412 NO-103 1 44355U 19036S 20268.17821563 .00016976 00000-0 22771-3 0 9992 2 44355 028.5328 076.7679 0329784 310.6165 046.6178 15.12259488068841 CP9 1 44360U 19036X 20268.71013703 .00038661 -56840-5 41574-3 0 9993 2 44360 28.5142 50.7186 0304136 354.1139 5.5930 15.21432188 69025 Move-IIb 1 44398U 19038N 20268.72823919 .00000976 00000-0 59433-4 0 9998 2 44398 97.5455 228.7556 0025612 142.0158 218.2886 15.12517901 67580 SONATE 1 44400U 19038Q 20268.59150328 .00000275 00000-0 19726-4 0 9997 2 44400 097.5496 228.6251 0025691 141.6206 218.6855 15.12040581067558 BeeSat 9 1 44412U 19038AC 20268.58164570 .00000975 00000-0 59537-4 0 9994 2 44412 97.5492 228.7393 0023460 146.4785 213.7936 15.12440075 67257 JAISAT-1 1 44419U 19038F 20268.63640826 .00000975 00000-0 58817-4 0 9990 2 44419 97.5493 229.1331 0022342 145.1290 215.1410 15.12924190 67592 LightSail-2 1 44420U 19036AC 20268.49081856 .00007342 00000-0 15638-2 0 9993 2 44420 024.0058 201.6253 0023513 149.7090 210.4765 14.56544127064776 Taurus 1 1 44530U 19059C 20268.78284585 .00000246 00000-0 82246-4 0 9993 2 44530 98.5660 350.8146 0014242 219.3602 140.6574 14.45643919 54692 MO-106 1 44830U 19084G 20268.39942950 .00389371 65267-4 80831-3 0 9994 2 44830 96.9521 139.4529 0013589 200.9365 159.1359 15.98958267 46134 TRSI-Sat 1 44831U 19084H 20268.38336261 .00328382 45381-4 75088-3 0 9994 2 44831 96.9554 139.3569 0013595 199.9793 160.0955 15.97217840 46130 MO-105 1 44832U 19084J 20268.17439433 .01163485 90004-3 10570-2 0 9994 2 44832 96.9530 139.9241 0011287 205.7756 154.2970 16.12669712 46149 Duchifat 3 1 44854U 19089C 20268.20576597 .00000304 00000-0 30942-4 0 9990 2 44854 036.9654 234.7201 0007446 145.4913 214.6299 14.99130676043126 OPS-SAT 1 44878U 19092F 20268.47162869 .00000993 00000-0 55596-4 0 9998 2 44878 097.4714 090.0894 0014607 019.6293 340.5498 15.15643672042530 TO-108 1 44881U 19093C 20268.81838101 -.00000033 00000-0 26060-5 0 9991 2 44881 97.9514 344.1636 0016465 74.9806 285.3218 14.81419144 41400 FloripaSat 1 1 44885U 19093G 20268.77368027 .00000154 00000-0 26117-4 0 9990 2 44885 97.9517 344.3615 0016262 85.2340 275.0731 14.82078974 41419 RS-44 1 44909U 19096E 20268.49401794 .00000014 00000-0 13702-4 0 9999 2 44909 082.5173 289.5074 0217262 355.2670 004.6373 12.79708224034852 SwampSat-2 1 45115U 19071E 20268.42003473 .00017702 00000-0 48986-3 0 9990 2 45115 051.6397 242.5320 0013126 056.2422 303.9810 15.36993392036330 HO-107 1 45119U 19071J 20268.63434765 .00002003 00000-0 71542-4 0 9992 2 45119 51.6430 243.9197 0012712 52.7894 307.4247 15.33875518 36343 Phoenix 1 45258U 98067RB 20268.27055944 .00006807 00000-0 12007-3 0 9992 2 45258 051.6405 215.6666 0005903 357.3145 002.7812 15.51639732033811 AztechSat-1 1 45261U 98067RE 20268.34284556 .00014032 00000-0 22531-3 0 9999 2 45261 051.6399 213.9098 0007713 015.1955 344.9265 15.53295000033862 QARMAN 1 45263U 98067RG 20268.55519251 .00011830 00000-0 19735-3 0 9992 2 45263 51.6402 213.8246 0007210 12.3289 347.7876 15.52407434 33925 Quetzal 1 1 45598U 98067RL 20268.17064560 .00009203 00000-0 16074-3 0 9993 2 45598 51.6413 217.2566 0003911 90.4656 269.6781 15.51438655 23115 BY70-2 1 45857U 20042B 20268.81834157 .00000662 00000-0 10287-3 0 9997 2 45857 98.0079 341.1450 0010727 357.3747 2.7399 14.76312963 12358 UPMSat 2 1 46276U 20061E 20268.46339141 .00000501 00000-0 29464-4 0 9998 2 46276 097.4627 341.1980 0001717 142.1210 218.0143 15.16047973003235 /EX